Погода в Суадаге

Россия / Республика Северная Осетия — Алания     43°02′27″N   44°16′44″E
темп.,
°C
ветер,
м/с
пор.,
м/с
влажн.,
%
обл.,
%
осадки,
мм/ч
давл.,
гПа
погр.,
м
14 июня, пн
пн1400:00+11ююз32780 0.0 101423
03:00+11ююз32720 0.0 101323
06:00+14ююз11720 0.0 101437
09:00+18ссв21640 0.0 1012520
12:00+20ссв326410 0.0 1012920
15:00+21ссв326865 0.1 10121102
18:00+19св238242 0.1 1012433
21:00+16ююз229121 0.3 101317
15 июня, вт
вт1500:00+14ююз32820 0.0 101123
03:00+14ююз32731 0.0 100921
06:00+16юз12714 0.0 101042
09:00+21всв236117 0.0 1008613
12:00+22с327026 0.1 1009733
15:00+22ссв327141 1.1 1010993
18:00+20св128246 0.8 1011301
21:00+17ююз228930 1.2 101218
16 июня, ср
ср1600:00+15ююз33850 0.0 101229
03:00+14ююз33791 0.0 101229
06:00+17ююз11750 0.0 101135
09:00+21ссв31720 0.0 1010487
12:00+23ссв32687 0.0 1009783
15:00+24ссв327035 0.1 1008900
18:00+23с117830 0.2 1009677
21:00+19ююз228610 0.3 101019
17 июня, чт
чт1700:00+17ююз32701 0.0 100925
03:00+17ююз226669 0.0 100826
06:00+19ююз22703 0.1 100876
09:00+22с326911 0.1 1007476
12:00+21с448389 0.9 1010715
15:00+18з4691100 3.8 1014372
18:00+19юз238365 0.8 101489
21:00+16ююз22843 0.8 101720
18 июня, пт
пт1800:00+15ю32850 0.0 101722
03:00+15ю328510 0.0 101826
06:00+18ююз117852 0.0 101883
09:00+18ссз228266 0.2 1019648
12:00+18с228885 1.0 1019501
15:00+18с228973 3.6 1019357
18:00+18ссз128735 3.5 1019179
21:00+17ююз229073 4.1 102123